Location: S�tio Afonso Gruber
(26.1760°S, 49.5250°W)
Time: 08:46:30
(UTC+00:00)

Cosmos 1844 Rocket - Pass Details

Date: 05 October 2020
Orbit: 823 x 846 km, 71.0° (Epoch: 22 October)

Event Time Altitude Azimuth Distance (km) Brightness Sun altitude
Exits shadow 07:06:42 15° 1° (N) 2,116 4.6 -24.1°
Maximum altitude 07:11:15 54° 75° (ENE) 1,019 3.3 -23.1°
Drops below altitude 10° 07:16:47 10° 151° (SSE) 2,475 5.7 -21.9°
Sets 07:19:17 0° 155° (SSE) 3,413 6.5 -21.4°
